LA4GY-1 Weather Reports


Display with metric or nautical units.
time (UTC)temp
F
wind
direction
speed
MPH
gust
MPH
rain 1hr
in
rain 24hr
in
rain mn
in
humidity
%
barometer
mb
20260508213005 45 340 0.0 0.0 0.00 0.00 0.00 64 1019.4
20260508212004 45 311 0.0 0.0 0.00 0.00 0.00 64 1019.6
20260508210004 45 346 0.0 0.0 0.00 0.00 0.00 61 1019.5
20260508205005 46 330 0.0 0.0 0.00 0.00 0.00 61 1019.6
20260508204005 46 336 0.0 0.0 0.00 0.00 0.00 62 1019.6
20260508203004 46 15 0.0 0.0 0.00 0.00 0.00 61 1019.7
20260508202005 46 0 0.0 0.0 0.00 0.00 0.00 60 1019.7
20260508201005 47 18 0.0 0.0 0.00 0.00 0.00 60 1019.9
20260508200004 47 26 0.0 0.0 0.00 0.00 0.00 60 1019.8
20260508195005 47 355 0.0 0.0 0.00 0.00 0.00 59 1019.8
20260508194005 48 49 0.0 0.0 0.00 0.01 0.00 59 1019.9
20260508193005 48 290 0.0 0.0 0.00 0.01 0.00 58 1019.9
20260508192005 49 318 0.0 0.0 0.00 0.01 0.00 57 1019.9
20260508191006 49 324 0.0 0.0 0.00 0.01 0.00 57 1020.0
20260508190005 50 342 0.0 0.0 0.00 0.01 0.00 54 1020.0
20260508185005 50 43 0.0 0.0 0.00 0.02 0.00 53 1020.1
20260508182005 51 117 0.0 0.0 0.00 0.02 0.00 53 1020.1
20260508181006 52 117 0.0 0.0 0.00 0.02 0.00 55 1020.2
20260508175006 53 117 0.0 0.0 0.00 0.02 0.00 51 1020.4
20260508174006 53 117 0.0 0.0 0.00 0.02 0.00 52 1020.4
20260508173006 53 117 0.0 0.0 0.00 0.02 0.00 48 1020.5
20260508172006 54 117 0.0 0.0 0.00 0.02 0.00 46 1020.6
20260508171006 54 117 0.0 0.0 0.00 0.02 0.00 45 1020.7
20260508170005 54 117 0.0 0.0 0.00 0.02 0.00 45 1020.8
20260508164006 53 117 0.0 0.0 0.00 0.03 0.00 43 1020.9
20260508163006 53 117 0.0 0.0 0.00 0.04 0.00 43 1020.9
20260508162006 53 117 0.0 0.0 0.00 0.04 0.00 44 1020.9
20260508161006 54 105 0.0 0.0 0.00 0.04 0.00 44 1020.9
20260508160005 53 111 0.0 0.0 0.00 0.04 0.00 45 1020.9
20260508155005 53 86 0.0 0.0 0.00 0.04 0.00 44 1020.9
20260508153005 53 101 0.0 0.0 0.00 0.04 0.00 44 1021.0
20260508152006 53 107 0.0 0.0 0.00 0.04 0.00 43 1021.0
20260508151006 52 105 0.0 0.0 0.00 0.06 0.00 45 1021.0
20260508145006 52 91 0.0 0.0 0.00 0.06 0.00 45 1021.1
20260508144006 52 140 0.0 0.0 0.00 0.06 0.00 45 1021.1
20260508143005 52 88 0.0 0.0 0.00 0.06 0.00 45 1021.3
20260508142006 52 113 0.0 0.0 0.00 0.06 0.00 44 1021.3
20260508141006 52 83 0.0 0.0 0.00 0.06 0.00 46 1021.4
20260508140006 52 72 0.0 0.0 0.00 0.06 0.00 45 1021.5
20260508135006 52 89 0.0 0.0 0.00 0.06 0.00 45 1021.6
20260508134005 52 94 0.0 0.0 0.00 0.06 0.00 46 1021.7
20260508133005 53 113 0.0 0.0 0.00 0.06 0.00 45 1021.7
20260508132006 53 76 0.0 0.0 0.00 0.06 0.00 46 1021.8
20260508131005 53 87 0.0 0.0 0.00 0.06 0.00 45 1022.0
20260508130006 53 102 0.0 0.0 0.00 0.06 0.00 46 1022.1
20260508125006 52 117 0.0 0.0 0.00 0.06 0.00 46 1022.2
20260508123006 52 121 0.0 0.0 0.00 0.06 0.00 47 1022.3
20260508120005 52 108 0.0 0.0 0.00 0.06 0.00 49 1022.6
20260508115005 51 127 0.0 0.0 0.00 0.06 0.00 50 1022.5
20260508114005 50 96 0.0 0.0 0.00 0.06 0.00 50 1022.6
20260508113005 50 114 0.0 0.0 0.00 0.06 0.00 49 1022.6
20260508112005 50 103 0.0 0.0 0.00 0.06 0.00 51 1022.8
20260508111005 49 104 0.0 0.0 0.00 0.06 0.00 53 1022.8
20260508110005 49 91 0.0 0.0 0.00 0.06 0.00 54 1022.9
20260508105005 49 110 0.0 0.0 0.00 0.06 0.00 58 1023.0
20260508104006 48 120 0.0 0.0 0.00 0.06 0.00 57 1022.9
20260508103006 48 163 0.0 0.0 0.00 0.06 0.00 60 1023.1
20260508102005 48 166 0.0 0.0 0.00 0.09 0.00 62 1023.1
20260508101005 47 136 0.0 0.0 0.00 0.09 0.00 64 1023.1
20260508100005 47 132 0.0 0.0 0.00 0.09 0.00 66 1023.0
20260508095006 47 114 0.0 0.0 0.00 0.09 0.00 65 1023.2
20260508094005 46 119 0.0 0.0 0.00 0.09 0.00 65 1023.1
20260508093006 46 137 0.0 0.0 0.00 0.09 0.00 66 1023.3
20260508092005 46 166 0.0 0.0 0.00 0.09 0.00 70 1023.3
20260508091005 45 169 0.0 0.0 0.00 0.09 0.00 71 1023.3
20260508090005 45 174 0.0 0.0 0.00 0.09 0.00 71 1023.3
20260508084006 45 163 0.0 0.0 0.00 0.09 0.00 72 1023.5
20260508083005 44 160 0.0 0.0 0.00 0.09 0.00 75 1023.6
20260508082005 44 99 0.0 0.0 0.00 0.09 0.00 73 1023.5
20260508081006 44 108 0.0 0.0 0.00 0.09 0.00 76 1023.6
20260508080005 43 163 0.0 0.0 0.00 0.09 0.00 82 1023.6
20260508075005 43 172 0.0 0.0 0.00 0.09 0.00 84 1023.6
20260508074005 42 173 0.0 0.0 0.00 0.09 0.00 84 1023.6
20260508071005 41 172 0.0 0.0 0.00 0.09 0.00 86 1023.7
20260508070005 41 175 0.0 0.0 0.00 0.09 0.00 87 1023.6
20260508064005 40 186 0.0 0.0 0.00 0.09 0.00 88 1023.5
20260508063005 40 186 0.0 0.0 0.00 0.09 0.00 88 1023.5
20260508062005 40 187 0.0 0.0 0.00 0.09 0.00 91 1023.5
20260508061006 39 195 0.0 0.0 0.00 0.09 0.00 90 1023.4
20260508055005 39 184 0.0 0.0 0.00 0.09 0.00 91 1023.5
20260508054005 39 170 0.0 0.0 0.00 0.09 0.00 91 1023.4
20260508053005 39 109 0.0 0.0 0.00 0.09 0.00 90 1023.3
20260508052005 39 107 0.0 0.0 0.00 0.09 0.00 90 1023.3
20260508051005 39 107 0.0 0.0 0.00 0.09 0.00 91 1023.3
20260508050005 39 107 0.0 0.0 0.00 0.09 0.00 91 1023.3
20260508045005 39 107 0.0 0.0 0.00 0.09 0.00 91 1023.2
20260508044005 39 107 0.0 0.0 0.00 0.09 0.00 91 1023.2
20260508043005 39 107 0.0 0.0 0.00 0.09 0.00 91 1023.2
20260508042005 39 107 0.0 0.0 0.00 0.09 0.00 92 1023.1
20260508041005 38 107 0.0 0.0 0.00 0.09 0.00 92 1023.0
20260508040005 38 107 0.0 0.0 0.00 0.09 0.00 92 1022.9
20260508035005 38 107 0.0 0.0 0.00 0.09 0.00 92 1022.9
20260508034006 38 107 0.0 0.0 0.00 0.09 0.00 92 1022.9
20260508033005 37 107 0.0 0.0 0.00 0.09 0.00 92 1022.9
20260508032005 37 107 0.0 0.0 0.00 0.09 0.00 92 1022.8
20260508031005 37 107 0.0 0.0 0.00 0.09 0.00 93 1022.9
20260508030005 36 107 0.0 0.0 0.00 0.09 0.00 93 1022.8
20260508024005 36 107 0.0 0.0 0.00 0.09 0.00 92 1022.6
20260508022005 36 107 0.0 0.0 0.00 0.09 0.00 92 1022.5
20260508021005 36 107 0.0 0.0 0.00 0.09 0.00 92 1022.4
20260508015004 36 107 0.0 0.0 0.00 0.09 0.00 92 1022.3
20260508014005 36 107 0.0 0.0 0.00 0.09 0.00 92 1022.3
20260508013006 36 107 0.0 0.0 0.00 0.09 0.00 92 1022.2
20260508012005 36 107 0.0 0.0 0.00 0.09 0.00 92 1022.1
20260508011005 36 107 0.0 0.0 0.00 0.09 0.00 92 1022.0
20260508010005 36 107 0.0 0.0 0.00 0.09 0.00 92 1022.0
20260508005005 36 107 0.0 0.0 0.00 0.09 0.00 92 1021.9
20260508004005 36 107 0.0 0.0 0.00 0.09 0.00 92 1021.8
20260508003006 36 107 0.0 0.0 0.00 0.09 0.00 91 1021.8
20260508002005 36 107 0.0 0.0 0.00 0.09 0.00 92 1021.7
20260508001005 37 107 0.0 0.0 0.00 0.09 0.00 91 1021.7
20260508000005 37 107 0.0 0.0 0.00 0.09 0.00 91 1021.6
20260507235005 37 107 0.0 0.0 0.00 0.09 0.00 91 1021.6
20260507234005 37 107 0.0 0.0 0.00 0.09 0.00 92 1021.2
20260507233005 37 107 0.0 0.0 0.00 0.09 0.00 92 1021.2
20260507232005 37 107 0.0 0.0 0.00 0.09 0.00 91 1021.2
20260507231005 37 107 0.0 0.0 0.00 0.09 0.00 91 1021.2
20260507230005 37 107 0.0 0.0 0.00 0.09 0.00 91 1021.3
20260507225005 37 107 0.0 0.0 0.00 0.09 0.00 91 1021.1
20260507224005 37 107 0.0 0.0 0.00 0.09 0.00 91 1021.0
20260507223005 38 107 0.0 0.0 0.00 0.09 0.00 91 1020.9
20260507222005 38 107 0.0 0.0 0.00 0.09 0.00 91 1020.8
20260507221005 38 107 0.0 0.0 0.00 0.09 0.00 91 1020.5
20260507220004 38 107 0.0 0.0 0.00 0.09 0.00 91 1020.5
20260507215004 38 107 0.0 0.0 0.00 0.09 0.09 91 1020.5